カタログに戻る

STARLINK-38212

運用中通信SSO
NORAD 100267·PAYLOAD·🇺🇸 United States

打ち上げ Aug 8, 2026 から Vandenberg Space Force Base

Loading…

次のパス (今後24時間)

TLE

最新Source: Space-Track

元期: Sep 14, 2026, 14:21 UTC

1 A0267U 26181X   26257.59803567  .00253186  00000-0  16433-2 0  9992
2 A0267  97.2827 300.9383 0000824  62.6790 297.4559 15.75263591  7026

AllMySatでSTARLINK-38212をリアルタイム追跡

Download on the App Store